| time (UTC) | temp C | wind direction | speed KPH | gust KPH | rain 1hr cm | rain 24hr cm | rain mn cm | humidity % | barometer mb |
| 20260506104002 | 23 | 126 | 1.6 | 8.0 | 0.00 | 0.00 | 0.00 | 87 | 1007.6 |
| 20260506103458 | 23 | 175 | 1.6 | 4.8 | 0.00 | 0.00 | 0.00 | 87 | 1007.6 |
| 20260506103017 | 23 | 170 | 1.6 | 4.8 | 0.00 | 0.00 | 0.00 | 87 | 1007.7 |
| 20260506102458 | 23 | 171 | 1.6 | 8.0 | 0.00 | 0.00 | 0.00 | 87 | 1007.7 |
| 20260506101959 | 23 | 162 | 1.6 | 8.0 | 0.00 | 0.00 | 0.00 | 86 | 1007.7 |
| 20260506101513 | 23 | 215 | 1.6 | 4.8 | 0.00 | 0.00 | 0.00 | 86 | 1007.7 |
| 20260506100458 | 23 | 217 | 1.6 | 6.4 | 0.00 | 0.00 | 0.00 | 86 | 1007.7 |
| 20260506095459 | 23 | 173 | 3.2 | 9.7 | 0.00 | 0.00 | 0.00 | 86 | 1007.5 |
| 20260506095000 | 23 | 166 | 3.2 | 8.0 | 0.00 | 0.00 | 0.00 | 86 | 1007.5 |
| 20260506094514 | 23 | 189 | 1.6 | 8.0 | 0.00 | 0.00 | 0.00 | 86 | 1007.3 |
| 20260506094001 | 23 | 153 | 3.2 | 8.0 | 0.00 | 0.00 | 0.00 | 86 | 1007.3 |
| 20260506093022 | 23 | 143 | 3.2 | 9.7 | 0.00 | 0.00 | 0.00 | 86 | 1007.2 |
| 20260506092501 | 24 | 147 | 3.2 | 11.3 | 0.00 | 0.00 | 0.00 | 86 | 1007.2 |
| 20260506092001 | 24 | 166 | 3.2 | 11.3 | 0.00 | 0.00 | 0.00 | 85 | 1007.3 |
| 20260506091514 | 24 | 129 | 3.2 | 11.3 | 0.00 | 0.00 | 0.00 | 85 | 1007.3 |
| 20260506090500 | 24 | 100 | 4.8 | 12.9 | 0.00 | 0.00 | 0.00 | 85 | 1007.3 |
| 20260506090023 | 24 | 139 | 3.2 | 12.9 | 0.00 | 0.00 | 0.00 | 85 | 1007.4 |
| 20260506085500 | 24 | 164 | 3.2 | 12.9 | 0.00 | 0.00 | 0.00 | 85 | 1007.5 |
| 20260506085001 | 24 | 156 | 3.2 | 11.3 | 0.00 | 0.00 | 0.00 | 85 | 1007.5 |
| 20260506084001 | 24 | 129 | 3.2 | 9.7 | 0.00 | 0.00 | 0.00 | 85 | 1007.5 |
| 20260506083500 | 24 | 348 | 3.2 | 9.7 | 0.00 | 0.00 | 0.00 | 85 | 1007.5 |
| 20260506083026 | 24 | 173 | 3.2 | 8.0 | 0.00 | 0.00 | 0.00 | 85 | 1007.6 |
| 20260506082459 | 24 | 121 | 3.2 | 8.0 | 0.00 | 0.00 | 0.00 | 85 | 1007.6 |
| 20260506082001 | 24 | 233 | 3.2 | 11.3 | 0.00 | 0.00 | 0.00 | 85 | 1007.5 |
| 20260506081515 | 24 | 151 | 3.2 | 11.3 | 0.00 | 0.00 | 0.00 | 85 | 1007.6 |
| 20260506080459 | 24 | 210 | 3.2 | 11.3 | 0.00 | 0.00 | 0.00 | 85 | 1007.7 |
| 20260506073459 | 24 | 191 | 3.2 | 8.0 | 0.00 | 0.00 | 0.00 | 85 | 1008.1 |
| 20260506073023 | 24 | 109 | 3.2 | 9.7 | 0.00 | 0.00 | 0.00 | 85 | 1008.1 |
| 20260506072459 | 24 | 195 | 3.2 | 9.7 | 0.00 | 0.00 | 0.00 | 85 | 1008.1 |
| 20260506072000 | 24 | 177 | 3.2 | 11.3 | 0.00 | 0.00 | 0.00 | 85 | 1008.2 |
| 20260506071514 | 24 | 147 | 4.8 | 11.3 | 0.00 | 0.00 | 0.00 | 85 | 1008.2 |
| 20260506071000 | 24 | 175 | 4.8 | 11.3 | 0.00 | 0.00 | 0.00 | 85 | 1008.2 |
| 20260506070459 | 24 | 195 | 4.8 | 11.3 | 0.00 | 0.00 | 0.00 | 85 | 1008.2 |
| 20260506062458 | 24 | 136 | 4.8 | 11.3 | 0.00 | 0.00 | 0.00 | 84 | 1008.3 |
| 20260506061513 | 24 | 178 | 4.8 | 12.9 | 0.00 | 0.00 | 0.00 | 84 | 1008.4 |
| 20260506060959 | 24 | 156 | 4.8 | 12.9 | 0.00 | 0.00 | 0.00 | 84 | 1008.4 |
| 20260506060458 | 24 | 158 | 4.8 | 14.5 | 0.00 | 0.00 | 0.00 | 84 | 1008.5 |
| 20260506051004 | 25 | 153 | 3.2 | 11.3 | 0.00 | 0.00 | 0.00 | 83 | 1008.5 |
| 20260506045004 | 25 | 189 | 4.8 | 16.1 | 0.00 | 0.00 | 0.00 | 83 | 1008.2 |
| 20260506044518 | 25 | 164 | 4.8 | 16.1 | 0.00 | 0.00 | 0.00 | 82 | 1008.3 |
| 20260506044005 | 25 | 143 | 4.8 | 11.3 | 0.00 | 0.00 | 0.00 | 82 | 1008.5 |
| 20260506043504 | 25 | 133 | 4.8 | 12.9 | 0.00 | 0.00 | 0.00 | 82 | 1008.6 |
| 20260506043026 | 25 | 235 | 4.8 | 11.3 | 0.00 | 0.00 | 0.00 | 82 | 1008.6 |
| 20260506042503 | 25 | 146 | 4.8 | 11.3 | 0.00 | 0.00 | 0.00 | 82 | 1008.5 |
| 20260506042005 | 25 | 160 | 4.8 | 12.9 | 0.00 | 0.00 | 0.00 | 82 | 1008.4 |
| 20260506041518 | 25 | 164 | 4.8 | 12.9 | 0.00 | 0.00 | 0.00 | 81 | 1008.4 |
| 20260506041004 | 25 | 127 | 3.2 | 11.3 | 0.00 | 0.00 | 0.00 | 81 | 1008.4 |
| 20260506040504 | 25 | 249 | 4.8 | 11.3 | 0.00 | 0.00 | 0.00 | 81 | 1008.3 |
| 20260506035504 | 25 | 123 | 4.8 | 9.7 | 0.00 | 0.00 | 0.00 | 81 | 1008.2 |
| 20260506035005 | 25 | 154 | 3.2 | 12.9 | 0.00 | 0.00 | 0.00 | 81 | 1008.1 |
| 20260506034518 | 25 | 166 | 3.2 | 12.9 | 0.00 | 0.00 | 0.00 | 80 | 1008.1 |
| 20260506034003 | 25 | 217 | 3.2 | 11.3 | 0.00 | 0.00 | 0.00 | 80 | 1008.2 |
| 20260506033503 | 25 | 135 | 3.2 | 12.9 | 0.00 | 0.00 | 0.00 | 80 | 1008.2 |
| 20260506033030 | 25 | 147 | 3.2 | 12.9 | 0.00 | 0.00 | 0.00 | 80 | 1008.1 |
| 20260506032503 | 25 | 162 | 4.8 | 12.9 | 0.00 | 0.00 | 0.00 | 80 | 1008.0 |
| 20260506032004 | 25 | 201 | 4.8 | 12.9 | 0.00 | 0.00 | 0.00 | 80 | 1007.9 |
| 20260506031005 | 25 | 162 | 4.8 | 16.1 | 0.00 | 0.00 | 0.00 | 80 | 1007.6 |
| 20260506030503 | 25 | 127 | 4.8 | 14.5 | 0.00 | 0.00 | 0.00 | 80 | 1007.5 |
| 20260506030029 | 25 | 133 | 4.8 | 16.1 | 0.00 | 0.00 | 0.00 | 80 | 1007.6 |
| 20260506025503 | 25 | 137 | 6.4 | 16.1 | 0.00 | 0.00 | 0.00 | 80 | 1007.6 |
| 20260506025006 | 25 | 143 | 4.8 | 17.7 | 0.00 | 0.00 | 0.00 | 79 | 1007.5 |
| 20260506024518 | 25 | 133 | 6.4 | 16.1 | 0.00 | 0.00 | 0.00 | 79 | 1007.5 |
| 20260506024004 | 25 | 201 | 6.4 | 16.1 | 0.00 | 0.00 | 0.00 | 79 | 1007.4 |
| 20260506023504 | 25 | 178 | 4.8 | 14.5 | 0.00 | 0.00 | 0.00 | 79 | 1007.2 |
| 20260506023027 | 25 | 157 | 6.4 | 16.1 | 0.00 | 0.00 | 0.00 | 79 | 1007.1 |
| 20260506022503 | 25 | 171 | 6.4 | 16.1 | 0.00 | 0.00 | 0.00 | 79 | 1007.0 |
| 20260506022005 | 25 | 178 | 6.4 | 14.5 | 0.00 | 0.00 | 0.00 | 79 | 1007.1 |
| 20260506021518 | 26 | 137 | 6.4 | 14.5 | 0.00 | 0.00 | 0.00 | 78 | 1007.1 |
| 20260506021003 | 26 | 208 | 6.4 | 14.5 | 0.00 | 0.00 | 0.00 | 78 | 1007.1 |
| 20260506020026 | 26 | 145 | 3.2 | 11.3 | 0.00 | 0.00 | 0.00 | 77 | 1006.9 |
| 20260506015502 | 26 | 236 | 3.2 | 9.7 | 0.00 | 0.00 | 0.00 | 77 | 1006.9 |
| 20260506014518 | 26 | 235 | 3.2 | 14.5 | 0.00 | 0.00 | 0.00 | 77 | 1006.8 |
| 20260506014003 | 26 | 158 | 3.2 | 9.7 | 0.00 | 0.00 | 0.00 | 77 | 1006.7 |
| 20260506013503 | 26 | 200 | 4.8 | 9.7 | 0.00 | 0.00 | 0.00 | 77 | 1006.6 |
| 20260506013026 | 26 | 150 | 4.8 | 9.7 | 0.00 | 0.00 | 0.00 | 76 | 1006.6 |
| 20260506012502 | 26 | 212 | 4.8 | 16.1 | 0.00 | 0.00 | 0.00 | 76 | 1006.4 |
| 20260506012004 | 26 | 162 | 4.8 | 19.3 | 0.00 | 0.00 | 0.00 | 76 | 1006.3 |
| 20260506011517 | 26 | 159 | 3.2 | 14.5 | 0.00 | 0.00 | 0.00 | 76 | 1006.2 |
| 20260506011003 | 26 | 148 | 3.2 | 11.3 | 0.00 | 0.00 | 0.00 | 75 | 1006.2 |
| 20260506010503 | 26 | 195 | 3.2 | 9.7 | 0.00 | 0.00 | 0.00 | 74 | 1006.1 |
| 20260506010027 | 26 | 168 | 4.8 | 11.3 | 0.00 | 0.00 | 0.00 | 74 | 1006.0 |
| 20260506004517 | 26 | 209 | 4.8 | 14.5 | 0.00 | 0.00 | 0.00 | 74 | 1005.9 |
| 20260506004003 | 26 | 181 | 4.8 | 14.5 | 0.00 | 0.00 | 0.00 | 74 | 1005.9 |
| 20260506003025 | 26 | 155 | 4.8 | 12.9 | 0.00 | 0.00 | 0.00 | 75 | 1006.0 |
| 20260506002502 | 26 | 176 | 4.8 | 12.9 | 0.00 | 0.00 | 0.00 | 75 | 1005.9 |
| 20260506002003 | 26 | 128 | 4.8 | 12.9 | 0.00 | 0.00 | 0.00 | 75 | 1005.7 |
| 20260506001517 | 26 | 184 | 4.8 | 12.9 | 0.00 | 0.00 | 0.00 | 74 | 1005.7 |
| 20260506001003 | 27 | 150 | 4.8 | 12.9 | 0.00 | 0.00 | 0.00 | 74 | 1005.8 |
| 20260506000026 | 27 | 37 | 4.8 | 11.3 | 0.00 | 0.00 | 0.00 | 73 | 1005.9 |
| 20260505235502 | 27 | 178 | 4.8 | 16.1 | 0.00 | 0.00 | 0.00 | 73 | 1005.9 |
| 20260505235004 | 27 | 200 | 6.4 | 16.1 | 0.00 | 0.00 | 0.00 | 73 | 1005.8 |
| 20260505234517 | 27 | 177 | 6.4 | 12.9 | 0.00 | 0.00 | 0.00 | 72 | 1005.8 |
| 20260505234003 | 27 | 152 | 6.4 | 12.9 | 0.00 | 0.00 | 0.00 | 73 | 1005.7 |
| 20260505233503 | 27 | 173 | 6.4 | 14.5 | 0.00 | 0.00 | 0.00 | 73 | 1005.7 |
| 20260505233025 | 27 | 155 | 6.4 | 16.1 | 0.00 | 0.00 | 0.00 | 73 | 1005.8 |
| 20260505232503 | 27 | 191 | 6.4 | 16.1 | 0.00 | 0.00 | 0.00 | 73 | 1005.7 |
| 20260505232003 | 27 | 146 | 4.8 | 14.5 | 0.00 | 0.00 | 0.00 | 73 | 1005.7 |
| 20260505231002 | 27 | 172 | 4.8 | 12.9 | 0.00 | 0.00 | 0.00 | 73 | 1005.7 |
| 20260505230502 | 27 | 191 | 6.4 | 12.9 | 0.00 | 0.00 | 0.00 | 72 | 1005.8 |
| 20260505230025 | 27 | 192 | 6.4 | 16.1 | 0.00 | 0.00 | 0.00 | 72 | 1005.8 |
| 20260505225501 | 27 | 168 | 6.4 | 16.1 | 0.00 | 0.00 | 0.00 | 72 | 1005.9 |
| 20260505224516 | 27 | 151 | 6.4 | 17.7 | 0.00 | 0.00 | 0.00 | 72 | 1005.8 |
| 20260505224002 | 27 | 174 | 6.4 | 17.7 | 0.00 | 0.00 | 0.00 | 72 | 1005.7 |
| 20260505223501 | 27 | 180 | 6.4 | 16.1 | 0.00 | 0.00 | 0.00 | 72 | 1005.8 |
| 20260505223027 | 27 | 202 | 8.0 | 16.1 | 0.00 | 0.00 | 0.00 | 72 | 1005.8 |
| 20260505221002 | 28 | 181 | 6.4 | 17.7 | 0.00 | 0.00 | 0.00 | 72 | 1005.9 |
| 20260505220501 | 28 | 156 | 6.4 | 16.1 | 0.00 | 0.00 | 0.00 | 72 | 1005.9 |
| 20260505220025 | 28 | 156 | 6.4 | 12.9 | 0.00 | 0.00 | 0.00 | 71 | 1006.0 |
| 20260505215501 | 28 | 146 | 8.0 | 17.7 | 0.00 | 0.00 | 0.00 | 71 | 1006.1 |
| 20260505215002 | 28 | 84 | 8.0 | 17.7 | 0.00 | 0.00 | 0.00 | 71 | 1006.2 |
| 20260505214516 | 27 | 167 | 6.4 | 17.7 | 0.00 | 0.00 | 0.00 | 71 | 1006.2 |
| 20260505214002 | 28 | 133 | 4.8 | 14.5 | 0.00 | 0.00 | 0.00 | 72 | 1006.3 |
| 20260505213501 | 28 | 216 | 6.4 | 14.5 | 0.00 | 0.00 | 0.00 | 72 | 1006.3 |
| 20260505212501 | 27 | 165 | 6.4 | 20.9 | 0.00 | 0.00 | 0.00 | 72 | 1006.4 |
| 20260505212001 | 28 | 231 | 8.0 | 20.9 | 0.00 | 0.00 | 0.00 | 71 | 1006.4 |
| 20260505211516 | 28 | 161 | 6.4 | 19.3 | 0.00 | 0.00 | 0.00 | 71 | 1006.4 |
| 20260505211002 | 28 | 156 | 6.4 | 14.5 | 0.00 | 0.00 | 0.00 | 71 | 1006.5 |
| 20260505210501 | 28 | 320 | 6.4 | 14.5 | 0.00 | 0.00 | 0.00 | 71 | 1006.6 |
| 20260505210025 | 28 | 158 | 4.8 | 14.5 | 0.00 | 0.00 | 0.00 | 72 | 1006.8 |
| 20260505205501 | 28 | 148 | 4.8 | 11.3 | 0.00 | 0.00 | 0.00 | 71 | 1006.8 |
| 20260505205002 | 28 | 183 | 6.4 | 14.5 | 0.00 | 0.00 | 0.00 | 71 | 1006.8 |
| 20260505204516 | 27 | 75 | 8.0 | 17.7 | 0.00 | 0.00 | 0.00 | 72 | 1006.8 |
| 20260505204001 | 28 | 220 | 8.0 | 19.3 | 0.00 | 0.00 | 0.00 | 70 | 1006.9 |
| 20260505203501 | 28 | 135 | 6.4 | 19.3 | 0.00 | 0.00 | 0.00 | 70 | 1007.0 |
| 20260505203025 | 28 | 243 | 4.8 | 12.9 | 0.00 | 0.00 | 0.00 | 70 | 1006.9 |
| 20260505202501 | 28 | 177 | 6.4 | 16.1 | 0.00 | 0.00 | 0.00 | 70 | 1007.0 |
| 20260505202002 | 28 | 166 | 8.0 | 16.1 | 0.00 | 0.00 | 0.00 | 70 | 1007.2 |
| 20260505201515 | 28 | 244 | 6.4 | 16.1 | 0.00 | 0.00 | 0.00 | 71 | 1007.3 |
| 20260505201004 | 28 | 200 | 6.4 | 17.7 | 0.00 | 0.00 | 0.00 | 71 | 1007.5 |
| 20260505200501 | 27 | 210 | 6.4 | 17.7 | 0.00 | 0.00 | 0.00 | 71 | 1007.6 |
| 20260505195005 | 27 | 202 | 6.4 | 19.3 | 0.00 | 0.00 | 0.00 | 71 | 1007.6 |
| 20260505194515 | 27 | 326 | 8.0 | 16.1 | 0.00 | 0.00 | 0.00 | 70 | 1007.7 |
| 20260505193027 | 27 | 270 | 8.0 | 16.1 | 0.00 | 0.00 | 0.00 | 72 | 1007.7 |
| 20260505192501 | 27 | 200 | 8.0 | 16.1 | 0.00 | 0.00 | 0.00 | 72 | 1007.9 |
| 20260505192001 | 27 | 181 | 6.4 | 16.1 | 0.00 | 0.00 | 0.00 | 73 | 1007.8 |
| 20260505191515 | 27 | 281 | 6.4 | 17.7 | 0.00 | 0.00 | 0.00 | 74 | 1007.9 |
| 20260505190503 | 27 | 118 | 6.4 | 24.1 | 0.00 | 0.00 | 0.00 | 73 | 1007.8 |
| 20260505190025 | 27 | 185 | 11.3 | 25.7 | 0.00 | 0.00 | 0.00 | 71 | 1007.8 |
| 20260505185459 | 27 | 146 | 9.7 | 25.7 | 0.00 | 0.00 | 0.00 | 70 | 1007.8 |
| 20260505185001 | 28 | 187 | 6.4 | 24.1 | 0.00 | 0.00 | 0.00 | 70 | 1008.0 |
| 20260505184515 | 28 | 199 | 6.4 | 19.3 | 0.00 | 0.00 | 0.00 | 71 | 1008.0 |
| 20260505184001 | 27 | 241 | 6.4 | 19.3 | 0.00 | 0.00 | 0.00 | 72 | 1008.0 |
| 20260505183500 | 27 | 211 | 6.4 | 17.7 | 0.00 | 0.00 | 0.00 | 72 | 1008.1 |
| 20260505183027 | 27 | 252 | 6.4 | 14.5 | 0.00 | 0.00 | 0.00 | 73 | 1008.1 |
| 20260505182500 | 27 | 191 | 8.0 | 17.7 | 0.00 | 0.00 | 0.00 | 74 | 1008.2 |
| 20260505181001 | 27 | 171 | 4.8 | 17.7 | 0.00 | 0.00 | 0.00 | 74 | 1008.2 |
| 20260505180500 | 27 | 241 | 6.4 | 17.7 | 0.00 | 0.00 | 0.00 | 74 | 1008.3 |
| 20260505180024 | 26 | 189 | 6.4 | 16.1 | 0.00 | 0.00 | 0.00 | 76 | 1008.4 |
| 20260505175500 | 26 | 184 | 4.8 | 16.1 | 0.00 | 0.00 | 0.00 | 76 | 1008.4 |
| 20260505175001 | 26 | 214 | 4.8 | 12.9 | 0.00 | 0.00 | 0.00 | 77 | 1008.5 |
| 20260505174514 | 26 | 206 | 6.4 | 16.1 | 0.00 | 0.00 | 0.00 | 76 | 1008.5 |
| 20260505173500 | 26 | 125 | 6.4 | 19.3 | 0.00 | 0.00 | 0.00 | 75 | 1008.6 |
| 20260505172002 | 26 | 228 | 6.4 | 19.3 | 0.00 | 0.00 | 0.00 | 76 | 1008.7 |
| 20260505170500 | 26 | 206 | 4.8 | 17.7 | 0.00 | 0.00 | 0.00 | 76 | 1008.6 |
| 20260505170020 | 26 | 169 | 4.8 | 14.5 | 0.00 | 0.00 | 0.00 | 77 | 1008.8 |
| 20260505165500 | 26 | 268 | 6.4 | 25.7 | 0.00 | 0.00 | 0.00 | 79 | 1008.9 |
| 20260505165001 | 25 | 234 | 6.4 | 25.7 | 0.00 | 0.00 | 0.00 | 79 | 1009.0 |
| 20260505164001 | 25 | 153 | 4.8 | 14.5 | 0.00 | 0.00 | 0.00 | 82 | 1008.9 |
| 20260505163500 | 25 | 152 | 4.8 | 11.3 | 0.00 | 0.00 | 0.00 | 82 | 1008.8 |
| 20260505163023 | 25 | 233 | 4.8 | 9.7 | 0.00 | 0.00 | 0.00 | 81 | 1008.8 |
| 20260505162459 | 25 | 228 | 4.8 | 16.1 | 0.00 | 0.00 | 0.00 | 80 | 1008.8 |
| 20260505161515 | 25 | 200 | 4.8 | 20.9 | 0.00 | 0.00 | 0.00 | 80 | 1008.8 |
| 20260505161001 | 25 | 161 | 4.8 | 20.9 | 0.00 | 0.00 | 0.00 | 80 | 1008.7 |
| 20260505153023 | 24 | 233 | 4.8 | 17.7 | 0.00 | 0.00 | 0.00 | 81 | 1008.5 |
| 20260505152500 | 24 | 146 | 4.8 | 16.1 | 0.00 | 0.00 | 0.00 | 81 | 1008.5 |
| 20260505152001 | 24 | 169 | 4.8 | 16.1 | 0.00 | 0.00 | 0.00 | 82 | 1008.5 |
| 20260505151515 | 24 | 118 | 4.8 | 12.9 | 0.00 | 0.00 | 0.00 | 82 | 1008.5 |
| 20260505151000 | 24 | 227 | 4.8 | 11.3 | 0.00 | 0.00 | 0.00 | 82 | 1008.5 |
| 20260505140500 | 23 | 181 | 8.0 | 17.7 | 0.00 | 0.00 | 0.00 | 83 | 1008.1 |
| 20260505124514 | 22 | 175 | 3.2 | 9.7 | 0.00 | 0.00 | 0.00 | 86 | 1007.8 |
| 20260505124000 | 22 | 164 | 3.2 | 9.7 | 0.00 | 0.00 | 0.00 | 87 | 1008.0 |
| 20260505123025 | 22 | 189 | 3.2 | 11.3 | 0.00 | 0.00 | 0.00 | 87 | 1008.0 |
| 20260505122001 | 22 | 194 | 3.2 | 8.0 | 0.00 | 0.00 | 0.00 | 87 | 1007.9 |
| 20260505121515 | 21 | 184 | 3.2 | 8.0 | 0.00 | 0.00 | 0.00 | 87 | 1008.0 |
| 20260505121001 | 21 | 168 | 3.2 | 11.3 | 0.00 | 0.00 | 0.00 | 87 | 1007.9 |
| 20260505120501 | 21 | 180 | 3.2 | 11.3 | 0.00 | 0.00 | 0.00 | 87 | 1007.7 |
| 20260505120023 | 21 | 170 | 3.2 | 11.3 | 0.00 | 0.00 | 0.00 | 87 | 1007.6 |
| 20260505115459 | 21 | 206 | 3.2 | 9.7 | 0.00 | 0.00 | 0.00 | 87 | 1007.6 |
| 20260505114513 | 21 | 162 | 3.2 | 6.4 | 0.00 | 0.00 | 0.00 | 87 | 1007.4 |
| 20260505114000 | 21 | 170 | 1.6 | 4.8 | 0.00 | 0.00 | 0.00 | 87 | 1007.6 |
| 20260505113459 | 21 | 180 | 1.6 | 8.0 | 0.00 | 0.00 | 0.00 | 87 | 1007.8 |
| 20260505113023 | 21 | 164 | 3.2 | 8.0 | 0.00 | 0.00 | 0.00 | 87 | 1008.0 |
| 20260505111959 | 21 | 124 | 3.2 | 6.4 | 0.00 | 0.00 | 0.00 | 87 | 1007.7 |
| 20260505111000 | 21 | 188 | 1.6 | 11.3 | 0.00 | 0.00 | 0.00 | 87 | 1007.7 |
| 20260505110501 | 21 | 207 | 1.6 | 8.0 | 0.00 | 0.00 | 0.00 | 87 | 1007.6 |